"Sample Date","Sample Time","Sensor Name","Sample Value","Units","Flow Rate","Sample Interval","Sample Volume","Laser Status","Number Channels","Micron Size 0","Counts/Channel 0","Micron Size 1","Counts/Channel 1","Micron Size 2","Counts/Channel 2","Micron Size 3","Counts/Channel 3","Micron Size 4","Counts/Channel 4","Micron Size 5","Counts/Channel 5","Micron Size 6","Counts/Channel 6","Micron Size 7","Counts/Channel 7","Micron Size 8","Counts/Channel 8","Micron Size 9","Counts/Channel 9","Micron Size 10","Counts/Channel 10","Micron Size 11","Counts/Channel 11","Micron Size 12","Counts/Channel 12","Micron Size 13","Counts/Channel 13","Micron Size 14","Counts/Channel 14","Micron Size 15","Counts/Channel 15","Micron Size 16","Counts/Channel 16","Micron Size 17","Counts/Channel 17","Micron Size 18","Counts/Channel 18","Micron Size 19","Counts/Channel 19","Micron Size 20","Counts/Channel 20","Micron Size 21","Counts/Channel 21","Micron Size 22","Counts/Channel 22","Micron Size 23","Counts/Channel 23","Micron Size 24","Counts/Channel 24","Micron Size 25","Counts/Channel 25","Micron Size 26","Counts/Channel 26","Micron Size 27","Counts/Channel 27","Micron Size 28","Counts/Channel 28","Micron Size 29","Counts/Channel 29","Micron Size 30","Counts/Channel 30","Micron Size 31","Counts/Channel 31"
"07/01/06","01:00:04","AMMA06",63582.000,"cc",28271.588,6.00,2827.159,1,6,0.100,37033.000,0.200,21292.000,0.300,4308.000,0.500,572.000,1.000,376.000,5.000,1.000
"07/01/06","01:00:10","AMMA06",63897.000,"cc",28311.440,6.00,2831.144,1,6,0.100,37173.000,0.200,21375.000,0.300,4366.000,0.500,593.000,1.000,389.000,5.000,1.000
"07/01/06","01:00:16","AMMA06",63672.000,"cc",28377.543,6.00,2837.754,1,6,0.100,37080.000,0.200,21235.000,0.300,4389.000,0.500,594.000,1.000,374.000,5.000,0
"07/01/06","01:00:22","AMMA06",63796.000,"cc",28330.522,6.00,2833.052,1,6,0.100,37184.000,0.200,21260.000,0.300,4377.000,0.500,607.000,1.000,368.000,5.000,0
"07/01/06","01:00:28","AMMA06",63896.000,"cc",28300.760,6.00,2830.076,1,6,0.100,37276.000,0.200,21317.000,0.300,4260.000,0.500,605.000,1.000,437.000,5.000,1.000
"07/01/06","01:00:34","AMMA06",63753.000,"cc",28311.717,6.00,2831.172,1,6,0.100,37018.000,0.200,21313.000,0.300,4440.000,0.500,572.000,1.000,410.000,5.000,0
"07/01/06","01:00:40","AMMA06",63772.000,"cc",28295.850,6.00,2829.585,1,6,0.100,37336.000,0.200,21170.000,0.300,4310.000,0.500,552.000,1.000,403.000,5.000,1.000
"07/01/06","01:00:46","AMMA06",63576.000,"cc",28287.758,6.00,2828.776,1,6,0.100,37070.000,0.200,21148.000,0.300,4384.000,0.500,611.000,1.000,363.000,5.000,0
"07/01/06","01:00:52","AMMA06",63844.000,"cc",28311.160,6.00,2831.116,1,6,0.100,37257.000,0.200,21345.000,0.300,4300.000,0.500,534.000,1.000,407.000,5.000,1.000
"07/01/06","01:00:58","AMMA06",63744.000,"cc",28324.760,6.00,2832.476,1,6,0.100,37306.000,0.200,21189.000,0.300,4261.000,0.500,605.000,1.000,382.000,5.000,1.000
"07/01/06","01:01:04","AMMA06",63883.000,"cc",28333.223,6.00,2833.323,1,6,0.100,37248.000,0.200,21316.000,0.300,4263.000,0.500,632.000,1.000,424.000,5.000,0
"07/01/06","01:01:10","AMMA06",63668.000,"cc",28338.721,6.00,2833.872,1,6,0.100,37117.000,0.200,21344.000,0.300,4217.000,0.500,595.000,1.000,393.000,5.000,2.000
"07/01/06","01:01:16","AMMA06",63425.000,"cc",28323.746,6.00,2832.375,1,6,0.100,37090.000,0.200,21050.000,0.300,4276.000,0.500,630.000,1.000,378.000,5.000,1.000
"07/01/06","01:01:22","AMMA06",63965.000,"cc",28277.887,6.00,2827.789,1,6,0.100,37302.000,0.200,21387.000,0.300,4251.000,0.500,647.000,1.000,378.000,5.000,0
"07/01/06","01:01:28","AMMA06",63755.000,"cc",28339.711,6.00,2833.971,1,6,0.100,37464.000,0.200,20924.000,0.300,4343.000,0.500,656.000,1.000,368.000,5.000,0
"07/01/06","01:01:34","AMMA06",63659.000,"cc",28333.131,6.00,2833.313,1,6,0.100,37146.000,0.200,21277.000,0.300,4254.000,0.500,612.000,1.000,370.000,5.000,0
"07/01/06","01:01:40","AMMA06",63787.000,"cc",28261.816,6.00,2826.182,1,6,0.100,37333.000,0.200,21124.000,0.300,4349.000,0.500,567.000,1.000,414.000,5.000,0
"07/01/06","01:01:46","AMMA06",63735.000,"cc",28296.801,6.00,2829.680,1,6,0.100,37204.000,0.200,21414.000,0.300,4155.000,0.500,605.000,1.000,356.000,5.000,1.000
"07/01/06","01:01:52","AMMA06",63859.000,"cc",28333.330,6.00,2833.333,1,6,0.100,37126.000,0.200,21541.000,0.300,4198.000,0.500,580.000,1.000,414.000,5.000,0
"07/01/06","01:01:58","AMMA06",63762.000,"cc",28348.834,6.00,2834.884,1,6,0.100,37157.000,0.200,21223.000,0.300,4333.000,0.500,657.000,1.000,391.000,5.000,1.000
"07/01/06","01:02:04","AMMA06",63562.000,"cc",28353.691,6.00,2835.369,1,6,0.100,37014.000,0.200,21346.000,0.300,4162.000,0.500,646.000,1.000,393.000,5.000,1.000
"07/01/06","01:02:10","AMMA06",63547.000,"cc",28292.027,6.00,2829.203,1,6,0.100,37220.000,0.200,21137.000,0.300,4240.000,0.500,593.000,1.000,357.000,5.000,0
"07/01/06","01:02:16","AMMA06",63667.000,"cc",28328.516,6.00,2832.852,1,6,0.100,37254.000,0.200,21147.000,0.300,4238.000,0.500,647.000,1.000,381.000,5.000,0
"07/01/06","01:02:22","AMMA06",63679.000,"cc",28297.807,6.00,2829.781,1,6,0.100,37090.000,0.200,21415.000,0.300,4187.000,0.500,615.000,1.000,372.000,5.000,0
"07/01/06","01:02:28","AMMA06",63632.000,"cc",28322.969,6.00,2832.297,1,6,0.100,37281.000,0.200,21103.000,0.300,4256.000,0.500,602.000,1.000,389.000,5.000,1.000
"07/01/06","01:02:34","AMMA06",63704.000,"cc",28279.434,6.00,2827.944,1,6,0.100,37475.000,0.200,20959.000,0.300,4288.000,0.500,624.000,1.000,357.000,5.000,1.000
"07/01/06","01:02:40","AMMA06",64394.000,"cc",28358.738,6.00,2835.874,1,6,0.100,37739.000,0.200,21362.000,0.300,4342.000,0.500,577.000,1.000,374.000,5.000,0
"07/01/06","01:02:46","AMMA06",63580.000,"cc",28321.383,6.00,2832.138,1,6,0.100,36973.000,0.200,21182.000,0.300,4430.000,0.500,602.000,1.000,393.000,5.000,0
"07/01/06","01:02:52","AMMA06",63930.000,"cc",28309.971,6.00,2830.997,1,6,0.100,37305.000,0.200,21312.000,0.300,4317.000,0.500,632.000,1.000,364.000,5.000,0
"07/01/06","01:02:58","AMMA06",63772.000,"cc",28339.137,6.00,2833.914,1,6,0.100,37407.000,0.200,21169.000,0.300,4197.000,0.500,633.000,1.000,366.000,5.000,0
"07/01/06","01:03:04","AMMA06",64003.000,"cc",28310.961,6.00,2831.096,1,6,0.100,37212.000,0.200,21402.000,0.300,4364.000,0.500,621.000,1.000,403.000,5.000,1.000
"07/01/06","01:03:10","AMMA06",63583.000,"cc",28325.594,6.00,2832.560,1,6,0.100,36998.000,0.200,21250.000,0.300,4339.000,0.500,626.000,1.000,370.000,5.000,0
"07/01/06","01:03:16","AMMA06",63471.000,"cc",28280.074,6.00,2828.008,1,6,0.100,37032.000,0.200,21283.000,0.300,4144.000,0.500,613.000,1.000,399.000,5.000,0
"07/01/06","01:03:22","AMMA06",63970.000,"cc",28331.510,6.00,2833.151,1,6,0.100,37116.000,0.200,21679.000,0.300,4195.000,0.500,583.000,1.000,397.000,5.000,0
"07/01/06","01:03:28","AMMA06",63857.000,"cc",28308.961,6.00,2830.896,1,6,0.100,36916.000,0.200,21339.000,0.300,4542.000,0.500,663.000,1.000,397.000,5.000,0
"07/01/06","01:03:34","AMMA06",63827.000,"cc",28379.793,6.00,2837.980,1,6,0.100,36945.000,0.200,21393.000,0.300,4458.000,0.500,616.000,1.000,415.000,5.000,0
"07/01/06","01:03:40","AMMA06",63296.000,"cc",28299.957,6.00,2829.996,1,6,0.100,36822.000,0.200,21281.000,0.300,4256.000,0.500,562.000,1.000,375.000,5.000,0
"07/01/06","01:03:46","AMMA06",63707.000,"cc",28319.246,6.00,2831.925,1,6,0.100,37162.000,0.200,21318.000,0.300,4216.000,0.500,634.000,1.000,377.000,5.000,0
"07/01/06","01:03:52","AMMA06",63698.000,"cc",28313.582,6.00,2831.358,1,6,0.100,36869.000,0.200,21378.000,0.300,4440.000,0.500,609.000,1.000,402.000,5.000,0
"07/01/06","01:03:58","AMMA06",63814.000,"cc",28277.533,6.00,2827.753,1,6,0.100,37062.000,0.200,21466.000,0.300,4354.000,0.500,605.000,1.000,327.000,5.000,0
"07/01/06","01:04:04","AMMA06",63491.000,"cc",28313.844,6.00,2831.385,1,6,0.100,36750.000,0.200,21303.000,0.300,4452.000,0.500,611.000,1.000,375.000,5.000,0
"07/01/06","01:04:10","AMMA06",63795.000,"cc",28297.106,6.00,2829.711,1,6,0.100,37116.000,0.200,21279.000,0.300,4353.000,0.500,641.000,1.000,405.000,5.000,1.000
"07/01/06","01:04:16","AMMA06",63771.000,"cc",28374.031,6.00,2837.403,1,6,0.100,36883.000,0.200,21469.000,0.300,4388.000,0.500,651.000,1.000,380.000,5.000,0
"07/01/06","01:04:22","AMMA06",63684.000,"cc",28341.041,6.00,2834.104,1,6,0.100,36858.000,0.200,21511.000,0.300,4392.000,0.500,559.000,1.000,363.000,5.000,1.000
"07/01/06","01:04:28","AMMA06",63577.000,"cc",28264.428,6.00,2826.443,1,6,0.100,37033.000,0.200,21169.000,0.300,4341.000,0.500,633.000,1.000,401.000,5.000,0
"07/01/06","01:04:34","AMMA06",63439.000,"cc",28313.055,6.00,2831.306,1,6,0.100,37008.000,0.200,21153.000,0.300,4273.000,0.500,604.000,1.000,401.000,5.000,0
"07/01/06","01:04:40","AMMA06",64065.000,"cc",28318.291,6.00,2831.829,1,6,0.100,37419.000,0.200,21404.000,0.300,4303.000,0.500,583.000,1.000,354.000,5.000,2.000
"07/01/06","01:04:46","AMMA06",63664.000,"cc",28273.727,6.00,2827.373,1,6,0.100,37082.000,0.200,21314.000,0.300,4227.000,0.500,624.000,1.000,417.000,5.000,0
"07/01/06","01:04:52","AMMA06",63757.000,"cc",28370.887,6.00,2837.089,1,6,0.100,37295.000,0.200,21215.000,0.300,4267.000,0.500,623.000,1.000,356.000,5.000,1.000
"07/01/06","01:04:58","AMMA06",63832.000,"cc",28319.723,6.00,2831.972,1,6,0.100,37288.000,0.200,21151.000,0.300,4379.000,0.500,644.000,1.000,370.000,5.000,0
"07/01/06","01:05:04","AMMA06",63420.000,"cc",28295.785,6.00,2829.579,1,6,0.100,37269.000,0.200,21014.000,0.300,4175.000,0.500,575.000,1.000,387.000,5.000,0
"07/01/06","01:05:10","AMMA06",63691.000,"cc",28333.320,6.00,2833.332,1,6,0.100,37246.000,0.200,21287.000,0.300,4187.000,0.500,612.000,1.000,358.000,5.000,1.000
"07/01/06","01:05:16","AMMA06",63489.000,"cc",28326.924,6.00,2832.693,1,6,0.100,36881.000,0.200,21430.000,0.300,4182.000,0.500,612.000,1.000,384.000,5.000,0
"07/01/06","01:05:22","AMMA06",63677.000,"cc",28278.680,6.00,2827.868,1,6,0.100,37147.000,0.200,21263.000,0.300,4230.000,0.500,604.000,1.000,433.000,5.000,0
"07/01/06","01:05:28","AMMA06",63876.000,"cc",28277.318,6.00,2827.732,1,6,0.100,37549.000,0.200,21093.000,0.300,4251.000,0.500,599.000,1.000,384.000,5.000,0
"07/01/06","01:05:34","AMMA06",63323.000,"cc",28343.229,6.00,2834.323,1,6,0.100,36785.000,0.200,21248.000,0.300,4285.000,0.500,584.000,1.000,419.000,5.000,2.000
"07/01/06","01:05:40","AMMA06",63605.000,"cc",28332.557,6.00,2833.256,1,6,0.100,37300.000,0.200,21122.000,0.300,4197.000,0.500,625.000,1.000,360.000,5.000,1.000
"07/01/06","01:05:46","AMMA06",63638.000,"cc",28327.711,6.00,2832.771,1,6,0.100,37311.000,0.200,21184.000,0.300,4192.000,0.500,586.000,1.000,365.000,5.000,0
"07/01/06","01:05:52","AMMA06",63494.000,"cc",28325.840,6.00,2832.584,1,6,0.100,37133.000,0.200,21041.000,0.300,4291.000,0.500,624.000,1.000,405.000,5.000,0
"07/01/06","01:05:58","AMMA06",63509.000,"cc",28303.203,6.00,2830.321,1,6,0.100,37214.000,0.200,21034.000,0.300,4235.000,0.500,628.000,1.000,398.000,5.000,0
"07/01/06","01:06:04","AMMA06",63445.000,"cc",28343.268,6.00,2834.327,1,6,0.100,37271.000,0.200,20981.000,0.300,4166.000,0.500,634.000,1.000,392.000,5.000,1.000
"07/01/06","01:06:10","AMMA06",63675.000,"cc",28309.742,6.00,2830.974,1,6,0.100,37158.000,0.200,21279.000,0.300,4244.000,0.500,606.000,1.000,387.000,5.000,1.000
"07/01/06","01:06:16","AMMA06",63140.000,"cc",28239.070,6.00,2823.907,1,6,0.100,36946.000,0.200,20982.000,0.300,4205.000,0.500,609.000,1.000,397.000,5.000,1.000
"07/01/06","01:06:22","AMMA06",63281.000,"cc",28303.490,6.00,2830.349,1,6,0.100,36996.000,0.200,21191.000,0.300,4096.000,0.500,620.000,1.000,378.000,5.000,0
"07/01/06","01:06:28","AMMA06",63939.000,"cc",28354.877,6.00,2835.488,1,6,0.100,37509.000,0.200,21289.000,0.300,4185.000,0.500,613.000,1.000,343.000,5.000,0
"07/01/06","01:06:34","AMMA06",63432.000,"cc",28322.291,6.00,2832.229,1,6,0.100,37369.000,0.200,20852.000,0.300,4244.000,0.500,594.000,1.000,373.000,5.000,0
"07/01/06","01:06:40","AMMA06",63394.000,"cc",28348.715,6.00,2834.872,1,6,0.100,37266.000,0.200,20897.000,0.300,4238.000,0.500,603.000,1.000,390.000,5.000,0
"07/01/06","01:06:46","AMMA06",63157.000,"cc",28335.668,6.00,2833.567,1,6,0.100,37016.000,0.200,21013.000,0.300,4198.000,0.500,569.000,1.000,361.000,5.000,0
"07/01/06","01:06:52","AMMA06",63378.000,"cc",28265.897,6.00,2826.590,1,6,0.100,37006.000,0.200,21153.000,0.300,4217.000,0.500,618.000,1.000,384.000,5.000,0
"07/01/06","01:06:58","AMMA06",63189.000,"cc",28320.752,6.00,2832.075,1,6,0.100,36869.000,0.200,21067.000,0.300,4276.000,0.500,612.000,1.000,364.000,5.000,1.000
"07/01/06","01:07:04","AMMA06",62940.000,"cc",28350.248,6.00,2835.025,1,6,0.100,36820.000,0.200,20927.000,0.300,4210.000,0.500,611.000,1.000,372.000,5.000,0
"07/01/06","01:07:10","AMMA06",63287.000,"cc",28326.707,6.00,2832.671,1,6,0.100,37173.000,0.200,21038.000,0.300,4119.000,0.500,579.000,1.000,378.000,5.000,0
"07/01/06","01:07:16","AMMA06",63306.000,"cc",28313.746,6.00,2831.375,1,6,0.100,37164.000,0.200,21025.000,0.300,4121.000,0.500,623.000,1.000,373.000,5.000,0
"07/01/06","01:07:22","AMMA06",63716.000,"cc",28287.598,6.00,2828.760,1,6,0.100,37288.000,0.200,21187.000,0.300,4291.000,0.500,585.000,1.000,365.000,5.000,0
"07/01/06","01:07:28","AMMA06",63679.000,"cc",28323.934,6.00,2832.394,1,6,0.100,37330.000,0.200,21203.000,0.300,4215.000,0.500,592.000,1.000,339.000,5.000,0
"07/01/06","01:07:34","AMMA06",62953.000,"cc",28280.400,6.00,2828.040,1,6,0.100,37005.000,0.200,20827.000,0.300,4166.000,0.500,563.000,1.000,392.000,5.000,0
"07/01/06","01:07:40","AMMA06",63506.000,"cc",28331.391,6.00,2833.139,1,6,0.100,37215.000,0.200,21037.000,0.300,4280.000,0.500,614.000,1.000,360.000,5.000,0
"07/01/06","01:07:46","AMMA06",63221.000,"cc",28324.285,6.00,2832.429,1,6,0.100,36944.000,0.200,21047.000,0.300,4258.000,0.500,584.000,1.000,388.000,5.000,0
"07/01/06","01:07:52","AMMA06",63406.000,"cc",28332.721,6.00,2833.272,1,6,0.100,37064.000,0.200,21195.000,0.300,4237.000,0.500,534.000,1.000,376.000,5.000,0
"07/01/06","01:07:58","AMMA06",63350.000,"cc",28326.811,6.00,2832.681,1,6,0.100,36651.000,0.200,21388.000,0.300,4363.000,0.500,574.000,1.000,374.000,5.000,0
"07/01/06","01:08:04","AMMA06",63284.000,"cc",28285.348,6.00,2828.535,1,6,0.100,36719.000,0.200,21329.000,0.300,4268.000,0.500,601.000,1.000,366.000,5.000,1.000
"07/01/06","01:08:10","AMMA06",63445.000,"cc",28304.461,6.00,2830.446,1,6,0.100,36890.000,0.200,21271.000,0.300,4366.000,0.500,550.000,1.000,366.000,5.000,2.000
"07/01/06","01:08:16","AMMA06",63790.000,"cc",28317.908,6.00,2831.791,1,6,0.100,36956.000,0.200,21488.000,0.300,4409.000,0.500,580.000,1.000,356.000,5.000,1.000
"07/01/06","01:08:22","AMMA06",63506.000,"cc",28308.754,6.00,2830.876,1,6,0.100,36986.000,0.200,21257.000,0.300,4303.000,0.500,601.000,1.000,359.000,5.000,0
"07/01/06","01:08:28","AMMA06",63439.000,"cc",28314.178,6.00,2831.418,1,6,0.100,36788.000,0.200,21336.000,0.300,4333.000,0.500,615.000,1.000,367.000,5.000,0
"07/01/06","01:08:34","AMMA06",63889.000,"cc",28341.859,6.00,2834.186,1,6,0.100,37212.000,0.200,21253.000,0.300,4451.000,0.500,599.000,1.000,374.000,5.000,0
"07/01/06","01:08:40","AMMA06",63262.000,"cc",28309.186,6.00,2830.919,1,6,0.100,36843.000,0.200,21155.000,0.300,4271.000,0.500,622.000,1.000,369.000,5.000,2.000
"07/01/06","01:08:46","AMMA06",63230.000,"cc",28339.412,6.00,2833.941,1,6,0.100,36680.000,0.200,21228.000,0.300,4322.000,0.500,625.000,1.000,375.000,5.000,0
"07/01/06","01:08:52","AMMA06",63664.000,"cc",28270.924,6.00,2827.093,1,6,0.100,37200.000,0.200,21314.000,0.300,4114.000,0.500,629.000,1.000,406.000,5.000,1.000
"07/01/06","01:08:58","AMMA06",63487.000,"cc",28319.869,6.00,2831.987,1,6,0.100,37117.000,0.200,21093.000,0.300,4305.000,0.500,600.000,1.000,372.000,5.000,0
"07/01/06","01:09:04","AMMA06",63344.000,"cc",28345.895,6.00,2834.590,1,6,0.100,36839.000,0.200,21263.000,0.300,4278.000,0.500,575.000,1.000,389.000,5.000,0
"07/01/06","01:09:10","AMMA06",63203.000,"cc",28315.971,6.00,2831.597,1,6,0.100,36654.000,0.200,21119.000,0.300,4434.000,0.500,620.000,1.000,376.000,5.000,0
"07/01/06","01:09:16","AMMA06",63743.000,"cc",28326.094,6.00,2832.610,1,6,0.100,37234.000,0.200,21215.000,0.300,4302.000,0.500,607.000,1.000,384.000,5.000,1.000
"07/01/06","01:09:22","AMMA06",63391.000,"cc",28332.539,6.00,2833.254,1,6,0.100,36911.000,0.200,21209.000,0.300,4282.000,0.500,592.000,1.000,397.000,5.000,0
"07/01/06","01:09:28","AMMA06",63330.000,"cc",28330.570,6.00,2833.057,1,6,0.100,36741.000,0.200,21255.000,0.300,4353.000,0.500,590.000,1.000,391.000,5.000,0
"07/01/06","01:09:34","AMMA06",63009.000,"cc",28307.713,6.00,2830.772,1,6,0.100,36720.000,0.200,21153.000,0.300,4174.000,0.500,579.000,1.000,383.000,5.000,0
"07/01/06","01:09:40","AMMA06",63308.000,"cc",28274.594,6.00,2827.460,1,6,0.100,37119.000,0.200,21031.000,0.300,4201.000,0.500,594.000,1.000,363.000,5.000,0
"07/01/06","01:09:46","AMMA06",63011.000,"cc",28291.690,6.00,2829.169,1,6,0.100,36944.000,0.200,20854.000,0.300,4231.000,0.500,576.000,1.000,404.000,5.000,2.000
"07/01/06","01:09:52","AMMA06",63313.000,"cc",28330.219,6.00,2833.022,1,6,0.100,37177.000,0.200,20985.000,0.300,4161.000,0.500,597.000,1.000,393.000,5.000,0
"07/01/06","01:09:58","AMMA06",63624.000,"cc",28316.191,6.00,2831.619,1,6,0.100,37314.000,0.200,21112.000,0.300,4171.000,0.500,623.000,1.000,403.000,5.000,1.000
"07/01/06","01:10:04","AMMA06",63614.000,"cc",28339.008,6.00,2833.901,1,6,0.100,37442.000,0.200,21033.000,0.300,4147.000,0.500,637.000,1.000,355.000,5.000,0
"07/01/06","01:10:10","AMMA06",63027.000,"cc",28332.363,6.00,2833.237,1,6,0.100,36953.000,0.200,20866.000,0.300,4196.000,0.500,631.000,1.000,381.000,5.000,0
"07/01/06","01:10:16","AMMA06",62827.000,"cc",28305.096,6.00,2830.510,1,6,0.100,36852.000,0.200,20839.000,0.300,4128.000,0.500,636.000,1.000,372.000,5.000,0
"07/01/06","01:10:22","AMMA06",62568.000,"cc",28347.711,6.00,2834.771,1,6,0.100,36784.000,0.200,20727.000,0.300,4129.000,0.500,571.000,1.000,357.000,5.000,0
"07/01/06","01:10:28","AMMA06",62917.000,"cc",28319.215,6.00,2831.922,1,6,0.100,37109.000,0.200,20609.000,0.300,4217.000,0.500,624.000,1.000,358.000,5.000,0
"07/01/06","01:10:34","AMMA06",62813.000,"cc",28263.826,6.00,2826.383,1,6,0.100,36798.000,0.200,20944.000,0.300,4116.000,0.500,563.000,1.000,392.000,5.000,0
"07/01/06","01:10:40","AMMA06",63075.000,"cc",28334.463,6.00,2833.447,1,6,0.100,36760.000,0.200,21185.000,0.300,4157.000,0.500,614.000,1.000,358.000,5.000,1.000
"07/01/06","01:10:46","AMMA06",63082.000,"cc",28330.352,6.00,2833.035,1,6,0.100,37053.000,0.200,20922.000,0.300,4174.000,0.500,563.000,1.000,370.000,5.000,0
"07/01/06","01:10:52","AMMA06",62827.000,"cc",28347.061,6.00,2834.706,1,6,0.100,36858.000,0.200,20855.000,0.300,4136.000,0.500,611.000,1.000,367.000,5.000,0
"07/01/06","01:10:58","AMMA06",63383.000,"cc",28310.752,6.00,2831.075,1,6,0.100,37217.000,0.200,21029.000,0.300,4176.000,0.500,580.000,1.000,381.000,5.000,0
"07/01/06","01:11:04","AMMA06",63234.000,"cc",28315.473,6.00,2831.547,1,6,0.100,37490.000,0.200,20601.000,0.300,4146.000,0.500,638.000,1.000,359.000,5.000,0
"07/01/06","01:11:10","AMMA06",62973.000,"cc",28270.258,6.00,2827.026,1,6,0.100,36955.000,0.200,21007.000,0.300,4009.000,0.500,629.000,1.000,373.000,5.000,0
"07/01/06","01:11:16","AMMA06",63151.000,"cc",28357.330,6.00,2835.733,1,6,0.100,37140.000,0.200,20932.000,0.300,4163.000,0.500,587.000,1.000,329.000,5.000,0
"07/01/06","01:11:22","AMMA06",63175.000,"cc",28323.648,6.00,2832.365,1,6,0.100,37279.000,0.200,20899.000,0.300,4068.000,0.500,583.000,1.000,345.000,5.000,1.000
"07/01/06","01:11:28","AMMA06",62914.000,"cc",28276.738,6.00,2827.674,1,6,0.100,36744.000,0.200,21006.000,0.300,4126.000,0.500,651.000,1.000,387.000,5.000,0
"07/01/06","01:11:34","AMMA06",63032.000,"cc",28258.699,6.00,2825.870,1,6,0.100,36902.000,0.200,21063.000,0.300,4160.000,0.500,554.000,1.000,353.000,5.000,0
"07/01/06","01:11:40","AMMA06",63301.000,"cc",28365.234,6.00,2836.524,1,6,0.100,36999.000,0.200,21222.000,0.300,4098.000,0.500,607.000,1.000,375.000,5.000,0
"07/01/06","01:11:46","AMMA06",63141.000,"cc",28333.383,6.00,2833.338,1,6,0.100,36917.000,0.200,21249.000,0.300,4023.000,0.500,564.000,1.000,387.000,5.000,1.000
"07/01/06","01:11:52","AMMA06",63064.000,"cc",28306.600,6.00,2830.660,1,6,0.100,36823.000,0.200,21136.000,0.300,4142.000,0.500,579.000,1.000,382.000,5.000,2.000
"07/01/06","01:11:58","AMMA06",63079.000,"cc",28301.041,6.00,2830.104,1,6,0.100,36862.000,0.200,21055.000,0.300,4206.000,0.500,595.000,1.000,361.000,5.000,0
"07/01/06","01:12:04","AMMA06",62869.000,"cc",28305.025,6.00,2830.503,1,6,0.100,36696.000,0.200,21046.000,0.300,4135.000,0.500,591.000,1.000,400.000,5.000,1.000
"07/01/06","01:12:10","AMMA06",63265.000,"cc",28312.037,6.00,2831.204,1,6,0.100,36778.000,0.200,21221.000,0.300,4305.000,0.500,606.000,1.000,353.000,5.000,2.000
"07/01/06","01:12:16","AMMA06",63426.000,"cc",28319.334,6.00,2831.934,1,6,0.100,36916.000,0.200,21329.000,0.300,4200.000,0.500,602.000,1.000,378.000,5.000,1.000
"07/01/06","01:12:22","AMMA06",63523.000,"cc",28283.629,6.00,2828.363,1,6,0.100,36935.000,0.200,21325.000,0.300,4282.000,0.500,606.000,1.000,374.000,5.000,1.000
"07/01/06","01:12:28","AMMA06",63156.000,"cc",28308.354,6.00,2830.835,1,6,0.100,37001.000,0.200,20900.000,0.300,4249.000,0.500,619.000,1.000,387.000,5.000,0
"07/01/06","01:12:34","AMMA06",63322.000,"cc",28351.006,6.00,2835.101,1,6,0.100,37034.000,0.200,21166.000,0.300,4166.000,0.500,614.000,1.000,342.000,5.000,0
"07/01/06","01:12:40","AMMA06",62866.000,"cc",28305.766,6.00,2830.577,1,6,0.100,36559.000,0.200,21150.000,0.300,4186.000,0.500,588.000,1.000,383.000,5.000,0
"07/01/06","01:12:46","AMMA06",63391.000,"cc",28340.844,6.00,2834.085,1,6,0.100,36588.000,0.200,21444.000,0.300,4368.000,0.500,612.000,1.000,379.000,5.000,0
"07/01/06","01:12:52","AMMA06",63288.000,"cc",28314.232,6.00,2831.423,1,6,0.100,36596.000,0.200,21362.000,0.300,4342.000,0.500,604.000,1.000,384.000,5.000,0
"07/01/06","01:12:58","AMMA06",62738.000,"cc",28283.897,6.00,2828.390,1,6,0.100,36243.000,0.200,21313.000,0.300,4241.000,0.500,600.000,1.000,341.000,5.000,0
"07/01/06","01:13:04","AMMA06",63245.000,"cc",28322.738,6.00,2832.274,1,6,0.100,36571.000,0.200,21461.000,0.300,4264.000,0.500,604.000,1.000,345.000,5.000,0
"07/01/06","01:13:10","AMMA06",63487.000,"cc",28374.551,6.00,2837.455,1,6,0.100,36683.000,0.200,21431.000,0.300,4344.000,0.500,616.000,1.000,412.000,5.000,1.000
"07/01/06","01:13:16","AMMA06",63186.000,"cc",28372.094,6.00,2837.210,1,6,0.100,36401.000,0.200,21425.000,0.300,4365.000,0.500,596.000,1.000,399.000,5.000,0
"07/01/06","01:13:22","AMMA06",63550.000,"cc",28301.961,6.00,2830.196,1,6,0.100,36586.000,0.200,21636.000,0.300,4362.000,0.500,589.000,1.000,377.000,5.000,0
"07/01/06","01:13:28","AMMA06",62933.000,"cc",28301.611,6.00,2830.161,1,6,0.100,36156.000,0.200,21434.000,0.300,4378.000,0.500,577.000,1.000,388.000,5.000,0
"07/01/06","01:13:34","AMMA06",63489.000,"cc",28309.803,6.00,2830.981,1,6,0.100,36482.000,0.200,21618.000,0.300,4361.000,0.500,609.000,1.000,418.000,5.000,1.000
"07/01/06","01:13:40","AMMA06",62987.000,"cc",28319.342,6.00,2831.934,1,6,0.100,36093.000,0.200,21545.000,0.300,4386.000,0.500,592.000,1.000,371.000,5.000,0
"07/01/06","01:13:46","AMMA06",62941.000,"cc",28329.238,6.00,2832.924,1,6,0.100,36103.000,0.200,21572.000,0.300,4298.000,0.500,585.000,1.000,383.000,5.000,0
"07/01/06","01:13:52","AMMA06",62815.000,"cc",28345.365,6.00,2834.537,1,6,0.100,36210.000,0.200,21232.000,0.300,4387.000,0.500,565.000,1.000,421.000,5.000,0
"07/01/06","01:13:58","AMMA06",63321.000,"cc",28310.121,6.00,2831.012,1,6,0.100,36448.000,0.200,21447.000,0.300,4458.000,0.500,573.000,1.000,395.000,5.000,0
"07/01/06","01:14:04","AMMA06",63093.000,"cc",28316.025,6.00,2831.603,1,6,0.100,36174.000,0.200,21422.000,0.300,4518.000,0.500,561.000,1.000,418.000,5.000,0
"07/01/06","01:14:10","AMMA06",63331.000,"cc",28289.268,6.00,2828.927,1,6,0.100,36231.000,0.200,21578.000,0.300,4525.000,0.500,613.000,1.000,383.000,5.000,1.000